Location: Six Mile Lake
(44.9000°N, 79.7170°W)
Time: 17:46:16
(UTC-04:00)

EO-79 - Pass Details

Date: 29 June 2022
Orbit: 588 x 603 km, 98.0° (Epoch: 16 August)

Event Time Altitude Azimuth Distance (km) Brightness Sun altitude
Rises 04:40:23 0° 352° (N) 2,853 ? -8.3°
Reaches altitude 10° 04:44:16 10° 315° (NW) 1,948 ? -7.8°
Maximum altitude 04:45:17 11° 301° (WNW) 1,895 ? -7.7°
Drops below altitude 10° 04:46:19 10° 287° (WNW) 1,947 ? -7.6°
Enters shadow 04:48:45 - 260° (W) 2,417 ? -7.2°
